Location: Burland Observatory
(39.4088°N, 105.4217°W)
Time: 20:05:21
(UTC-07:00)

SR - Pass Details

Date: 10 December 2019
Orbit: 574 x 882 km, 66.7° (Epoch: 20 January)

Event Time Altitude Azimuth Distance (km) Brightness Sun altitude
Rises 18:16:36 0° 332° (NNW) 3,475 ? -18.4°
Reaches altitude 10° 18:19:10 10° 334° (NNW) 2,519 ? -18.9°
Maximum altitude 18:25:02 77° 60° (ENE) 862 ? -20.0°
Drops below altitude 10° 18:30:31 10° 147° (SSE) 2,358 ? -21.0°
Enters shadow 18:32:04 - 148° (SSE) 2,944 ? -21.3°
Sets 18:32:51 0° 149° (SSE) 3,239 - -21.5°
